• In Latvia
  • List of Countries
  • For 7 days
  • Water Temperature
  • Satellite Maps
  • Weather Map
  • Weather Widgets
  • user-avatar
    Login

    Hourly Weather Sankt Polten

    Today, 22 August, Tuesday

    Time Temperature Precipitation Wind Pressure Humidity
    00:00 +13°C° 0 mm 2 mps 740 mmHg 85%
    01:00 +13°C° 0 mm 1 mps 740 mmHg 85%
    02:00 +12°C° 0 mm 1 mps 740 mmHg 86%
    03:00 +12°C° 0 mm 1 mps 740 mmHg 86%
    04:00 +12°C° 0 mm 1 mps 740 mmHg 87%
    05:00 +13°C° 0 mm 1 mps 740 mmHg 83%
    06:00 +14°C° 0 mm 1 mps 740 mmHg 79%
    07:00 +15°C° 0 mm 1 mps 740 mmHg 73%
    08:00 +18°C° 0 mm 1 mps 740 mmHg 65%
    09:00 +20°C° 0 mm 1 mps 740 mmHg 58%
    10:00 +21°C° 0 mm 2 mps 740 mmHg 50%
    11:00 +21°C° 0 mm 2 mps 739 mmHg 48%
    12:00 +23°C° 0 mm 2 mps 739 mmHg 46%
    13:00 +23°C° 0 mm 2 mps 739 mmHg 44%
    14:00 +23°C° 0 mm 2 mps 738 mmHg 46%
    15:00 +23°C° 0 mm 2 mps 738 mmHg 47%
    16:00 +23°C° 0 mm 2 mps 738 mmHg 48%
    17:00 +20°C° 0 mm 2 mps 738 mmHg 55%
    18:00 +18°C° 0 mm 2 mps 738 mmHg 63%
    19:00 +16°C° 0 mm 1 mps 738 mmHg 70%
    20:00 +16°C° 0 mm 1 mps 738 mmHg 73%
    21:00 +15°C° 0 mm 1 mps 738 mmHg 75%
    22:00 +14°C° 0 mm 1 mps 738 mmHg 78%
    23:00 +14°C° 0 mm 1 mps 738 mmHg 79%

    Tomorrow, 23 August, Wednesday

    Time Temperature Precipitation Wind Pressure Humidity
    00:00 +14°C° 0 mm 1 mps 738 mmHg 80%
    01:00 +13°C° 0 mm 1 mps 738 mmHg 82%
    02:00 +13°C° 0 mm 1 mps 738 mmHg 84%
    03:00 +12°C° 0 mm 1 mps 738 mmHg 86%
    04:00 +12°C° 0 mm 1 mps 738 mmHg 88%
    05:00 +13°C° 0 mm 1 mps 738 mmHg 84%
    06:00 +14°C° 0 mm 1 mps 738 mmHg 80%
    07:00 +15°C° 0 mm 1 mps 739 mmHg 76%
    08:00 +19°C° 0 mm 1 mps 739 mmHg 68%
    09:00 +21°C° 0 mm 1 mps 739 mmHg 60%
    10:00 +23°C° 0 mm 1 mps 739 mmHg 52%
    11:00 +24°C° 0 mm 1 mps 739 mmHg 48%
    12:00 +25°C° 0 mm 1 mps 738 mmHg 45%
    13:00 +26°C° 0 mm 1 mps 738 mmHg 42%
    14:00 +26°C° 0 mm 1 mps 738 mmHg 42%
    15:00 +26°C° 0 mm 1 mps 737 mmHg 43%
    16:00 +25°C° 0 mm 1 mps 737 mmHg 44%
    17:00 +23°C° 0 mm 1 mps 737 mmHg 52%
    18:00 +19°C° 0 mm 0 mps 737 mmHg 60%
    19:00 +17°C° 0 mm 0 mps 737 mmHg 67%
    20:00 +16°C° 0 mm 0 mps 737 mmHg 69%
    21:00 +16°C° 0 mm 1 mps 737 mmHg 71%
    22:00 +16°C° 0 mm 1 mps 738 mmHg 73%
    23:00 +15°C° 0 mm 1 mps 738 mmHg 74%

    Day after tomorrow, 24 August, Thursday

    Time Temperature Precipitation Wind Pressure Humidity
    00:00 +15°C° 0 mm 1 mps 738 mmHg 75%
    01:00 +15°C° 0 mm 1 mps 737 mmHg 76%
    02:00 +15°C° 0 mm 1 mps 737 mmHg 78%
    03:00 +15°C° 0 mm 1 mps 737 mmHg 79%
    04:00 +15°C° 0 mm 1 mps 737 mmHg 80%
    05:00 +16°C° 0 mm 1 mps 737 mmHg 77%
    06:00 +18°C° 0 mm 1 mps 738 mmHg 75%
    07:00 +20°C° 0 mm 1 mps 738 mmHg 72%
    08:00 +22°C° 0 mm 1 mps 738 mmHg 65%
    09:00 +25°C° 0 mm 1 mps 738 mmHg 59%
    10:00 +28°C° 0 mm 1 mps 738 mmHg 52%
    11:00 +28°C° 0 mm 1 mps 738 mmHg 50%
    12:00 +29°C° 0 mm 2 mps 738 mmHg 48%
    13:00 +30°C° 0 mm 2 mps 737 mmHg 47%
    14:00 +30°C° 0 mm 2 mps 737 mmHg 48%
    15:00 +30°C° 0 mm 2 mps 737 mmHg 49%
    16:00 +30°C° 0 mm 2 mps 737 mmHg 51%
    17:00 +28°C° 0 mm 2 mps 737 mmHg 60%
    18:00 +25°C° 0 mm 2 mps 737 mmHg 70%
    19:00 +23°C° 0 mm 1 mps 737 mmHg 79%
    20:00 +23°C° 0.1 mm 2 mps 737 mmHg 80%
    21:00 +23°C° 0.1 mm 2 mps 737 mmHg 81%
    22:00 +21°C° 0.1 mm 2 mps 738 mmHg 81%
    23:00 +21°C° 0.1 mm 2 mps 738 mmHg 82%

    25 August, Friday

    Time Temperature Precipitation Wind Pressure Humidity
    00:00 +21°C° 0.1 mm 2 mps 738 mmHg 82%
    01:00 +21°C° 0.1 mm 2 mps 738 mmHg 83%
    02:00 +21°C° 0 mm 1 mps 738 mmHg 84%
    03:00 +21°C° 0 mm 1 mps 738 mmHg 86%
    04:00 +20°C° 0 mm 1 mps 738 mmHg 87%
    05:00 +21°C° 0 mm 1 mps 738 mmHg 84%
    06:00 +22°C° 0 mm 1 mps 738 mmHg 81%
    07:00 +21°C° 0 mm 0 mps 738 mmHg 78%
    08:00 +23°C° 0 mm 0 mps 738 mmHg 69%
    09:00 +27°C° 0 mm 1 mps 738 mmHg 60%
    10:00 +30°C° 0 mm 1 mps 738 mmHg 50%
    11:00 +31°C° 0 mm 1 mps 738 mmHg 46%
    12:00 +32°C° 0 mm 1 mps 738 mmHg 43%
    13:00 +33°C° 0 mm 1 mps 738 mmHg 39%
    14:00 +32°C° 0 mm 1 mps 737 mmHg 40%
    15:00 +32°C° 0 mm 1 mps 737 mmHg 41%
    16:00 +32°C° 0 mm 2 mps 737 mmHg 42%
    17:00 +29°C° 0 mm 1 mps 737 mmHg 50%
    18:00 +27°C° 0 mm 1 mps 737 mmHg 58%
    19:00 +25°C° 0 mm 1 mps 737 mmHg 66%
    20:00 +24°C° 0 mm 1 mps 737 mmHg 68%
    21:00 +23°C° 0 mm 1 mps 737 mmHg 71%
    22:00 +23°C° 0 mm 1 mps 737 mmHg 73%
    23:00 +22°C° 0 mm 1 mps 737 mmHg 75%

    26 August, Saturday

    Time Temperature Precipitation Wind Pressure Humidity
    00:00 +22°C° 0 mm 1 mps 737 mmHg 78%
    01:00 +21°C° 0 mm 1 mps 737 mmHg 80%
    02:00 +21°C° 0 mm 1 mps 737 mmHg 81%
    03:00 +20°C° 0 mm 1 mps 737 mmHg 82%
    04:00 +20°C° 0 mm 1 mps 737 mmHg 84%
    05:00 +21°C° 0 mm 1 mps 737 mmHg 81%
    06:00 +22°C° 0 mm 1 mps 737 mmHg 78%
    07:00 +21°C° 0 mm 0 mps 738 mmHg 76%
    08:00 +25°C° 0 mm 1 mps 738 mmHg 68%
    09:00 +27°C° 0 mm 1 mps 738 mmHg 60%
    10:00 +30°C° 0 mm 1 mps 738 mmHg 52%
    11:00 +31°C° 0 mm 1 mps 738 mmHg 49%
    12:00 +32°C° 0 mm 1 mps 737 mmHg 46%
    13:00 +33°C° 0 mm 1 mps 737 mmHg 43%
    14:00 +34°C° 0 mm 2 mps 737 mmHg 44%
    15:00 +32°C° 0 mm 2 mps 736 mmHg 45%
    16:00 +32°C° 0 mm 2 mps 736 mmHg 46%
    17:00 +30°C° 0 mm 1 mps 736 mmHg 54%
    18:00 +28°C° 0 mm 1 mps 736 mmHg 62%
    19:00 +25°C° 0 mm 1 mps 736 mmHg 70%
    20:00 +25°C° 0.1 mm 1 mps 736 mmHg 71%
    21:00 +24°C° 0.1 mm 1 mps 736 mmHg 72%
    22:00 +23°C° 0.1 mm 1 mps 736 mmHg 73%
    23:00 +23°C° 0 mm 1 mps 736 mmHg 73%

    27 August, Sunday

    Time Temperature Precipitation Wind Pressure Humidity
    00:00 +23°C° 0 mm 1 mps 736 mmHg 74%
    01:00 +22°C° 0 mm 1 mps 736 mmHg 74%
    02:00 +22°C° 0 mm 1 mps 736 mmHg 74%
    03:00 +22°C° 0 mm 1 mps 736 mmHg 74%
    04:00 +22°C° 0 mm 1 mps 736 mmHg 74%
    05:00 +23°C° 0 mm 1 mps 736 mmHg 72%
    06:00 +24°C° 0 mm 1 mps 736 mmHg 70%
    07:00 +25°C° 0 mm 1 mps 736 mmHg 68%
    08:00 +27°C° 0 mm 1 mps 736 mmHg 61%
    09:00 +30°C° 0 mm 1 mps 736 mmHg 53%
    10:00 +32°C° 0 mm 1 mps 736 mmHg 46%
    11:00 +33°C° 0 mm 1 mps 736 mmHg 43%
    12:00 +34°C° 0 mm 1 mps 735 mmHg 41%
    13:00 +35°C° 0 mm 1 mps 735 mmHg 38%
    14:00 +34°C° 0 mm 1 mps 735 mmHg 40%
    15:00 +35°C° 0 mm 2 mps 735 mmHg 41%
    16:00 +35°C° 0 mm 2 mps 734 mmHg 42%
    17:00 +31°C° 0 mm 2 mps 734 mmHg 52%
    18:00 +29°C° 0 mm 1 mps 734 mmHg 61%
    19:00 +27°C° 0 mm 1 mps 734 mmHg 70%
    20:00 +26°C° 0 mm 2 mps 734 mmHg 72%
    21:00 +25°C° 0 mm 2 mps 735 mmHg 74%
    22:00 +25°C° 0 mm 2 mps 735 mmHg 76%
    23:00 +24°C° 0.2 mm 2 mps 735 mmHg 77%
    Show more